Regional Weather Roundup
Issued by NWS

Home | Current Version | Previous Version | Text Only | Print | Product List | Glossary On
Versions: 1 2 3 4 5 6 7 8 9 10 11 12 13 14 15 16 17 18 19 20 21 22 23 24 25 26 27 28 29 30 31 32 33 34 35 36 37 38 39 40 41 42 43 44 45 46 47 48 49 50
865
ASUS43 KLMK 250310
RWRKY
KENTUCKY REGIONAL WEATHER ROUNDUP
NATIONAL WEATHER SERVICE LOUISVILLE KY
1100 PM EDT TUE MAY 24 2016

NOTE "FAIR" INDICATES FEW OR NO CLOUDS BELOW 12,000 FEET
WITH NO SIGNIFICANT WEATHER AND/OR OBSTRUCTIONS TO VISIBILITY.

KYZ001>023-026-027-061>063-070>075-250400-
WESTERN AND SOUTH CENTRAL KENTUCKY

CITY           SKY/WX    TMP DP  RH WIND       PRES   REMARKS
PADUCAH        CLOUDY    71  62  73 SW6       30.03R
HENDERSON      CLOUDY    72  59  64 S5        30.04R
OWENSBORO      CLEAR     73  61  66 SE7       30.05R
HOPKINSVILLE   CLOUDY    75  59  57 S7        30.07R
BOWLING GREEN  CLEAR     68  60  75 CALM      30.08S
GLASGOW        CLEAR     66  59  77 CALM      30.11S
$$

KYZ024-025-028>034-038-045-046-053-250400-
NORTH CENTRAL KENTUCKY

CITY           SKY/WX    TMP DP  RH WIND       PRES   REMARKS
LOUISVILLE/SDF MOCLDY    74  57  55 SE5       30.08R
LOUISVILLE/LOU MOCLDY    74  57  55 CALM      30.09R
FORT KNOX      CLOUDY    71  57  61 S5        30.08R
$$

KYZ035>037-039>044-047>052-055>060-089>105-250400-
NORTHEAST KENTUCKY

CITY           SKY/WX    TMP DP  RH WIND       PRES   REMARKS
LEXINGTON      CLEAR     65  51  60 SE6       30.12R
COVINGTON      CLEAR     67  50  54 S5        30.10R
FRANKFORT      CLEAR     67  54  63 SE3       30.10R
$$

KYZ054-064>069-076>088-106>120-250400-
SOUTHEAST KENTUCKY

CITY           SKY/WX    TMP DP  RH WIND       PRES   REMARKS
JACKSON        CLEAR     70  46  42 CALM      30.16R
LONDON         CLEAR     61  52  72 CALM      30.16R
SOMERSET       CLEAR     61  54  77 CALM      30.15R
MIDDLESBORO    CLEAR     58  52  79 CALM      30.18R
MONTICELLO     PTCLDY    62  59  90 NE9       30.15R
$$





USA.gov is the U.S. government's official web portal to all federal, state and local government web resources and services.